{"data":{"norad_id":58746,"epoch":"2026-09-20T16:22:38.825184Z","epoch_age_seconds":136716,"freshness":"FRESH","line1":"1 58746U 24005U   26263.68239381  .00000304  00000+0  20570-4 0  9994","line2":"2 58746  43.0011  46.3024 0001101 271.4294  88.6432 15.27577990152104","mean_motion":15.2757799,"eccentricity":0.0001101,"inclination_deg":43.0011,"raan_deg":46.3024,"arg_perigee_deg":271.4294,"mean_anomaly_deg":88.6432,"bstar":2.057e-5,"rev_number":15210,"period_min":94.266872750634,"perigee_km":482.29969745752,"apogee_km":483.81053196117,"semimajor_km":6861.1921147093,"source":"CELESTRAK","updated_at":"2026-09-21T09:00:33.955045Z"}}